HR1LRC-21 Weather Reports


time (UTC)temp
F
wind
direction
speed
knots
gust
knots
rain 1hr
in
rain 24hr
in
rain mn
in
humidity
%
barometer
mb
20260507075724 69 124 0.9 0.9 0.00 0.00 0.00 68 1014.0
20260507074723 69 124 0.9 0.9 0.00 0.00 0.00 68 1014.0
20260507073722 69 124 0.9 0.9 0.00 0.00 0.00 68 1014.0
20260507072722 69 124 0.9 0.9 0.00 0.00 0.00 68 1014.0
20260507071721 69 124 0.9 0.9 0.00 0.00 0.00 68 1014.0
20260507070720 69 124 0.9 0.9 0.00 0.00 0.00 68 1014.0
20260507065719 69 124 0.9 0.9 0.00 0.00 0.00 68 1014.0
20260507064718 69 124 0.9 0.9 0.00 0.00 0.00 68 1014.0
20260507063718 69 124 0.9 0.9 0.00 0.00 0.00 68 1014.0
20260507062717 69 124 0.9 0.9 0.00 0.00 0.00 68 1015.0
20260507061716 69 124 0.9 0.9 0.00 0.00 0.00 68 1015.0
20260507060716 69 124 0.9 0.9 0.00 0.00 0.00 68 1015.0
20260507055715 69 124 0.9 0.9 0.00 0.00 0.00 68 1014.0
20260507054714 69 124 0.9 0.9 0.00 0.00 0.00 68 1014.0
20260507053714 74 174 0.9 4.3 0.00 0.00 0.00 56 1014.0
20260507052713 74 174 0.9 4.3 0.00 0.00 0.00 56 1015.0
20260507051712 74 174 0.9 4.3 0.00 0.00 0.00 56 1015.0
20260507050711 74 174 0.9 4.3 0.00 0.00 0.00 56 1015.0
20260507045711 74 174 0.9 4.3 0.00 0.00 0.00 56 1015.0
20260507044710 74 174 0.9 4.3 0.00 0.00 0.00 56 1015.0
20260507043709 74 174 0.9 4.3 0.00 0.00 0.00 56 1015.0
20260507041708 74 174 0.9 4.3 0.00 0.00 0.00 56 1015.0
20260507040707 74 174 0.9 4.3 0.00 0.00 0.00 56 1015.0
20260507035707 74 174 0.9 4.3 0.00 0.00 0.00 56 1015.0
20260507034706 74 174 0.9 4.3 0.00 0.00 0.00 56 1015.0
20260507033705 74 174 0.9 4.3 0.00 0.00 0.00 56 1015.0
20260507032705 74 174 0.9 4.3 0.00 0.00 0.00 56 1015.0
20260507025703 74 174 0.9 4.3 0.00 0.00 0.00 56 1014.0
20260507024702 74 174 0.9 4.3 0.00 0.00 0.00 56 1014.0
20260507023702 74 174 0.9 4.3 0.00 0.00 0.00 56 1014.0
20260507022701 74 174 0.9 4.3 0.00 0.00 0.00 56 1014.0
20260507021700 74 174 0.9 4.3 0.00 0.00 0.00 56 1014.0
20260507020700 74 174 0.9 4.3 0.00 0.00 0.00 56 1014.0
20260507015659 74 174 0.9 4.3 0.00 0.00 0.00 56 1013.0
20260507014659 74 174 1.7 4.3 0.00 0.00 0.00 56 1013.0
20260507013658 78 114 2.6 8.7 0.00 0.00 0.00 39 1013.0
20260507012657 78 114 2.6 8.7 0.00 0.00 0.00 39 1013.0
20260507011657 78 114 2.6 8.7 0.00 0.00 0.00 39 1013.0
20260507010656 78 114 2.6 8.7 0.00 0.00 0.00 39 1013.0
20260507005656 78 114 2.6 8.7 0.00 0.00 0.00 39 1012.0
20260507004655 78 114 2.6 8.7 0.00 0.00 0.00 39 1012.0
20260507003655 78 114 2.6 8.7 0.00 0.00 0.00 39 1012.0
20260507002654 78 114 2.6 8.7 0.00 0.00 0.00 39 1013.0
20260507001653 78 114 2.6 8.7 0.00 0.00 0.00 39 1012.0
20260507000653 78 114 2.6 8.7 0.00 0.00 0.00 39 1012.0
20260506235652 78 114 2.6 8.7 0.00 0.00 0.00 39 1011.0
20260506234651 78 114 2.6 8.7 0.00 0.00 0.00 39 1011.0
20260506233651 86 68 4.3 6.1 0.00 0.00 0.00 25 1011.0
20260506232650 86 68 4.3 6.1 0.00 0.00 0.00 25 1010.0
20260506231650 86 68 4.3 6.1 0.00 0.00 0.00 25 1011.0
20260506230649 86 68 4.3 6.1 0.00 0.00 0.00 25 1011.0
20260506225648 86 68 4.3 6.1 0.00 0.00 0.00 25 1009.0
20260506224648 86 68 4.3 6.1 0.00 0.00 0.00 25 1009.0
20260506223647 86 68 4.3 6.1 0.00 0.00 0.00 25 1009.0
20260506222646 86 68 4.3 6.1 0.00 0.00 0.00 25 1010.0
20260506221646 86 68 4.3 6.1 0.00 0.00 0.00 25 1009.0
20260506220645 86 68 4.3 6.1 0.00 0.00 0.00 25 1009.0
20260506215645 86 68 4.3 6.1 0.00 0.00 0.00 25 1009.0
20260506214644 86 68 4.3 6.1 0.00 0.00 0.00 25 1009.0
20260506213643 86 68 4.3 6.1 0.00 0.00 0.00 25 1009.0
20260506212643 86 68 4.3 6.1 0.00 0.00 0.00 25 1009.0
20260506211642 86 68 4.3 6.1 0.00 0.00 0.00 25 1009.0
20260506210031 86 68 4.3 6.1 0.00 0.00 0.00 25 1009.0
20260506205031 86 68 4.3 6.1 0.00 0.00 0.00 25 1009.0
20260506204030 86 68 4.3 6.1 0.00 0.00 0.00 25 1009.0
20260506203029 86 68 4.3 6.1 0.00 0.00 0.00 25 1009.0
20260506202019 86 68 4.3 6.1 0.00 0.00 0.00 25 1010.0
20260506201019 86 68 4.3 6.1 0.00 0.00 0.00 25 1009.0
20260506200018 86 68 4.3 6.1 0.00 0.00 0.00 25 1009.0
20260506195018 86 68 4.3 6.1 0.00 0.00 0.00 25 1009.0
20260506194017 86 68 4.3 6.1 0.00 0.00 0.00 25 1009.0
20260506193016 86 68 4.3 6.1 0.00 0.00 0.00 25 1010.0
20260506192016 82 65 5.2 7.0 0.00 0.00 0.00 28 1011.0
20260506191015 82 65 5.2 7.0 0.00 0.00 0.00 27 1011.0
20260506190015 82 65 5.2 7.0 0.00 0.00 0.00 26 1011.0
20260506185014 82 65 5.2 7.0 0.00 0.00 0.00 26 1011.0
20260506184013 82 65 5.2 7.0 0.00 0.00 0.00 26 1011.0
20260506183013 81 65 5.2 7.0 0.00 0.00 0.00 28 1011.0
20260506182012 80 70 5.2 7.0 0.00 0.00 0.00 33 1012.0
20260506181012 80 70 5.2 7.0 0.00 0.00 0.00 33 1012.0
20260506180011 79 70 5.2 7.0 0.00 0.00 0.00 32 1012.0
20260506175010 79 70 5.2 7.0 0.00 0.00 0.00 32 1012.0
20260506172923 77 70 4.3 7.0 0.00 0.00 0.00 38 1013.0
20260506171922 77 70 4.3 7.0 0.00 0.00 0.00 38 1013.0
20260506170921 77 70 4.3 7.0 0.00 0.00 0.00 37 1013.0
20260506165921 77 70 4.3 7.0 0.00 0.00 0.00 36 1013.0
20260506164920 77 70 4.3 7.0 0.00 0.00 0.00 36 1013.0
20260506163920 76 70 4.3 7.0 0.00 0.00 0.00 39 1013.0
20260506162919 75 69 4.3 7.8 0.00 0.00 0.00 46 1014.0
20260506161934 75 69 4.3 7.8 0.00 0.00 0.00 46 1014.0
20260506160934 74 69 4.3 7.8 0.00 0.00 0.00 46 1014.0
20260506155933 74 69 4.3 7.8 0.00 0.00 0.00 46 1014.0
20260506154932 74 69 4.3 7.8 0.00 0.00 0.00 46 1014.0
20260506153932 73 63 4.3 7.0 0.00 0.00 0.00 54 1014.0
20260506152931 73 63 4.3 7.0 0.00 0.00 0.00 54 1015.0
20260506151930 73 63 4.3 7.0 0.00 0.00 0.00 54 1015.0
20260506150930 72 63 4.3 7.0 0.00 0.00 0.00 55 1015.0
20260506145929 72 63 4.3 7.0 0.00 0.00 0.00 55 1015.0
20260506144928 72 63 4.3 7.0 0.00 0.00 0.00 55 1015.0
20260506143928 69 54 4.3 4.3 0.00 0.00 0.00 63 1015.0
20260506142927 69 54 4.3 4.3 0.00 0.00 0.00 63 1015.0
20260506141927 69 54 4.3 5.2 0.00 0.00 0.00 63 1015.0
20260506140926 68 54 4.3 5.2 0.00 0.00 0.00 64 1015.0
20260506135925 68 54 4.3 5.2 0.00 0.00 0.00 63 1015.0
20260506134925 68 54 4.3 5.2 0.00 0.00 0.00 63 1015.0
20260506133924 66 43 2.6 2.6 0.00 0.00 0.00 67 1015.0
20260506132924 66 43 2.6 2.6 0.00 0.00 0.00 67 1015.0
20260506131923 66 43 2.6 2.6 0.00 0.00 0.00 67 1015.0
20260506130923 66 43 2.6 2.6 0.00 0.00 0.00 67 1015.0
20260506125922 66 43 2.6 2.6 0.00 0.00 0.00 67 1015.0
20260506124921 66 43 2.6 2.6 0.00 0.00 0.00 67 1015.0
20260506123921 66 43 2.6 2.6 0.00 0.00 0.00 67 1015.0
20260506122920 66 43 2.6 2.6 0.00 0.00 0.00 67 1015.0
20260506121920 66 43 2.6 2.6 0.00 0.00 0.00 67 1015.0
20260506120919 66 43 2.6 2.6 0.00 0.00 0.00 67 1015.0
20260506115918 66 43 2.6 2.6 0.00 0.00 0.00 67 1015.0
20260506114918 66 43 2.6 2.6 0.00 0.00 0.00 67 1015.0
20260506113917 66 43 2.6 2.6 0.00 0.00 0.00 67 1015.0
20260506112917 66 43 2.6 2.6 0.00 0.00 0.00 67 1015.0
20260506111916 66 43 2.6 2.6 0.00 0.00 0.00 67 1015.0
20260506110916 66 43 2.6 2.6 0.00 0.00 0.00 67 1015.0
20260506105915 66 43 2.6 2.6 0.00 0.00 0.00 67 1015.0
20260506104915 66 43 2.6 2.6 0.00 0.00 0.00 67 1015.0
20260506103914 66 43 2.6 2.6 0.00 0.00 0.00 67 1015.0
20260506102913 66 43 2.6 2.6 0.00 0.00 0.00 67 1015.0
20260506101913 66 43 2.6 2.6 0.00 0.00 0.00 67 1015.0
20260506100913 66 43 2.6 2.6 0.00 0.00 0.00 67 1014.0
20260506095912 66 43 2.6 2.6 0.00 0.00 0.00 67 1014.0
20260506094911 66 43 2.6 2.6 0.00 0.00 0.00 67 1014.0
20260506093911 66 43 2.6 2.6 0.00 0.00 0.00 67 1014.0
20260506092910 66 43 2.6 2.6 0.00 0.00 0.00 67 1014.0
20260506091909 66 43 2.6 2.6 0.00 0.00 0.00 67 1014.0
20260506090909 66 43 2.6 2.6 0.00 0.00 0.00 67 1014.0
20260506085908 66 43 2.6 2.6 0.00 0.00 0.00 67 1014.0
20260506084908 66 43 2.6 2.6 0.00 0.00 0.00 67 1014.0
20260506083907 66 43 2.6 2.6 0.00 0.00 0.00 67 1014.0
20260506082907 66 43 2.6 2.6 0.00 0.00 0.00 67 1014.0
20260506081906 66 43 2.6 2.6 0.00 0.00 0.00 67 1014.0
20260506080905 66 43 2.6 2.6 0.00 0.00 0.00 67 1014.0